COSMOS 1275 DEB, 14440

Orbit data source: Space-Track

COSMOS 1275 DEB, 14440 is space debris in LEO originally from a launch on Thu, 04 Jun 1981 UTC launched from the Plesetsk Missile And Space Complex (PKMTR). Debris objects in space refer to the collection of defunct objects orbiting the Earth. Examples of debris include non-operational satellites, rocket bodies, and fragments generated from explosions, collisions, or faulty payload assembly.

Loading next visibility...
Identifier
14440, 1981-053JG
Orbit
LEO
Country
Flag of CISCIS
Related business
Manufacturer
Unknown
Mission
Spacecraft
Bus & Motor
Unknown
Mass
Unknown
Launch date (UTC)
1981-06-04 (45 years ago)
Launch vehicle
Unknown
Launch site
Plesetsk Missile And Space Complex (PKMTR)
Object type
Payload
Rocket body
Debris
Shape & HBR
Unknown shape, 0.1 m
Radar Cross Section
Small (<0.1 m²)

Expand to show TLE details & history
Last TLE update: 1 day ago

TLE from 1 day ago
0 COSMOS 1275 DEB
1 14440U 81053JG  26118.76693987  .00001112  00000-0  13104-2 0  9999
2 14440  82.9210 232.4768 0114065 184.6630 299.0070 13.64449836206838
Epoch: 2026-04-28T18:24Z
TLE epoch observation values (Epoch: 2026-04-28T18:24:23.604Z)
Latitude
56.89868°
Longitude
-91.28263°
Altitude
988.904 km
Speed
7.383 km/s
True Right ascension
02h 46m 12s
True Declination
56° 44' 46"
Sunlit
Object was in daylight at epoch
Visualization orbit readout
Latitude
Unknown
Longitude
Unknown
Altitude
Unknown
Speed
Unknown
Apparent Right ascension
Unknown
Apparent Declination
Unknown
Sunlit
N/A
Visualization observer readout
Local Sidereal Time
07:46:20
Azimuth
Unknown
Elevation
Unknown
Doppler factor
Unknown
Orbital elements
Apogee altitude
1,101.078 km
Perigee altitude
932.379 km
Semi-major axis
7,394.865 km
Eccentricity
0.01141
Inclination
82.921°
RAAN
232.4768°
Arg. of periapsis
184.663°
True anomaly
297.85599°
Mean anomaly
299.007°
Eccentric anomaly
298.43229°
Mean motion
3.41309 °/min
Orbital period
105.48 mins
BSTAR
0.0013104
Loading maneuver chart data...
Computing Atmospheric mass density...
Loading historical data...
Loading historical data...
Loading historical data...
Loading historical data...
Loading historical data...
Loading historical data...
Loading historical data...

Documentation

Showing up to 5 results
|